DELTA 1 R/B, 3094

Orbit data source: Space-Track

DELTA 1 R/B, 3094 is space debris in LEO originally from a launch on Thu, 11 Jan 1968 UTC launched from the Air Force Western Test Range (AFWTR). Debris objects in space refer to the collection of defunct objects orbiting the Earth. Examples of debris include non-operational satellites, rocket bodies, and fragments generated from explosions, collisions, or faulty payload assembly.

Loading next visibility...
Identifier
3094, 1968-002B
Orbit
LEO
Last TLE update
15 hours ago
Origin
Manufacturer
UTC
Mission
Spacecraft
Bus & Motor
FW4, Unknown motor
Mass
~40 kg wet, ~40 kg dry
Launch date (UTC)
1968-01-11 (57 years ago)
Launch vehicle
Unknown
Launch site
Air Force Western Test Range (AFWTR)
Object type
Payload
Rocket body
Debris
Shape & HBR
Cyl, 1.5 m
Radar Cross Section
0.687 m², Medium (>0.1 m² and < 1m²)

Expand to show TLE details & history

TLE from 15 hours ago
0 DELTA 1 R/B
1 03094U 68002B   25191.46301203 -.00000044  00000-0  10964-3 0  9991
2 03094 105.8152  15.9504 0313693 242.4504 174.9907 12.85255258696056
Epoch: 2025-07-10T11:06Z
TLE epoch observation values (Epoch: 2025-07-10T11:06:44.239Z)
Latitude
54.55133°
Longitude
-102.68806°
Altitude
1,569.693 km
Speed
6.976 km/s
True Right ascension
23h 30m 30s
True Declination
54° 24' 19"
Sunlit
Object was in daylight at epoch
Visualization orbit readout
Latitude
64.98838°
Longitude
-115.65424°
Altitude
1,569.76 km
Speed
6.978 km/s
Apparent Right ascension
00h 54m 00s
Apparent Declination
23° 00' 14"
Sunlit
Object is in daylight
Visualization observer readout
Local Sidereal Time
14:24:02
Azimuth
22.63° NE
Elevation
-23.668°
Doppler factor
1
Orbital elements
Apogee altitude
1,559.62 km
Perigee altitude
1,076.763 km
Semi-major axis
7,696.329 km
Eccentricity
0.03137
Inclination
105.8152°
RAAN
15.9504°
Arg. of periapsis
242.4504°
True anomaly
Unknown
Mean anomaly
174.9907°
Eccentric anomaly
Unknown
Mean motion
3.21453 °/min
Orbital period
111.99 mins
BSTAR
0.00010964
Loading maneuver chart data...
Loading SW <> Apogee altitude chart data...
Loading historical data...
Loading historical data...
Loading historical data...
Loading historical data...
Loading historical data...
Loading historical data...
Loading historical data...

DELTA 1 R/B Visibility forecast

Observer location: undefined°, undefined°

Span
Click to sort rows by Start time (UTC) header in descending order
Start Az.
Max El. time (UTC)
Max El. Az.
Max El.
End time (UTC)
End Az.
15 mins2025-07-11 02:20:32.206Z13.988° NNE2025-07-11 02:28:32.206Z297.714° NW38.385°2025-07-11 02:35:32.206Z228.675° WSW
5 mins2025-07-11 04:13:32.206Z340.826° N2025-07-11 04:15:32.206Z325.74° NNW13.561°2025-07-11 04:18:32.206Z302.518° NW
8 mins2025-07-11 09:28:32.206Z65.403° ENE2025-07-11 09:31:32.206Z43.276° NE16.058°2025-07-11 09:36:32.206Z7.29° NNE
15 mins2025-07-11 11:12:32.206Z133.275° SE2025-07-11 11:19:32.206Z61.779° ENE40.607°2025-07-11 11:27:32.206Z345.315° N
13 mins2025-07-11 13:03:32.206Z202.639° SW2025-07-11 13:09:32.206Z262.128° W30.31°2025-07-11 13:16:32.206Z319.019° NNW
13 mins2025-07-12 00:49:32.206Z39.997° NE2025-07-12 00:55:32.206Z104.234° ESE34.969°2025-07-12 01:02:32.206Z175.453° S
|